RH
4 5 5 5 8 10 12 12 11 13 13 12 12 11 8 9 12 9 10 10 15 23 23 22 22 23 26 29 35 40 43 43 43 48 54 54 52 54 56 57 56 55 56 57 54 50 49 53 57 56 53 52 57 58 55 53 53 51 46 44 42 43 44 43 42 40 39 38 36 34 32 31 31 30 29 28 26 26 28 29 28 28 27 26 24 23 21 19 20 20 24 29 33 33 32 32 30
4 4 5 7 10 11 12 11 12 15 12 10 10 10 9 10 10 10 12 10 18 29 28 28 27 29 30 32 38 41 45 50 50 50 54 55 55 57 58 58 56 53 54 54 51 49 49 54 57 57 55 54 52 53 57 56 56 55 50 47 45 46 46 44 43 42 41 40 37 34 33 33 33 33 32 32 31 29 29 30 30 30 31 30 28 28 26 22 21 21 23 25 30 32 30 31 31
4 5 7 9 11 10 11 11 12 14 11 8 6 9 9 8 9 11 16 18 26 33 32 32 33 35 37 39 41 41 46 53 54 51 55 56 56 59 57 57 55 53 53 52 51 51 52 54 57 56 54 55 55 56 62 63 61 57 52 51 50 50 48 46 45 44 43 40 38 35 35 34 33 33 33 34 34 33 31 30 30 30 31 31 31 31 31 28 26 24 23 25 29 30 31 32 31
5 6 9 10 10 10 11 13 15 14 10 9 6 9 10 9 11 11 17 29 36 36 34 34 38 40 39 43 44 44 48 52 52 50 53 54 54 57 56 56 56 55 54 53 52 51 51 54 57 56 55 59 62 60 63 66 62 57 54 56 55 53 50 48 47 46 44 41 39 37 36 35 33 32 33 35 35 35 34 32 30 31 31 32 32 33 33 31 31 30 27 25 28 32 37 37 33
7 8 10 10 9 10 11 13 16 14 9 10 8 9 14 12 12 10 15 30 37 38 40 37 41 43 40 44 45 45 50 50 49 48 51 51 50 53 55 55 55 54 53 51 51 49 48 53 59 60 57 58 60 58 58 61 58 56 58 61 59 57 54 51 49 48 45 42 39 38 36 34 33 32 34 35 34 35 36 34 31 31 31 31 33 33 33 31 30 31 29 26 31 40 44 44 39
8 10 9 9 9 9 11 12 13 12 9 10 8 11 17 13 13 13 15 25 33 38 41 39 41 44 44 45 45 46 48 48 48 49 51 51 49 50 53 53 52 51 51 49 51 52 53 57 62 63 62 58 58 58 57 57 58 60 64 66 63 59 56 53 51 48 46 43 40 37 35 33 32 33 34 35 34 32 34 34 31 31 32 30 31 32 33 31 29 29 29 26 33 43 44 43 40
9 9 9 9 9 10 13 13 13 11 9 10 9 14 19 15 14 16 17 21 28 37 39 42 44 46 49 48 47 49 48 46 46 48 51 52 52 52 52 51 50 50 49 50 53 56 59 63 63 64 65 63 60 60 60 60 62 66 68 67 64 60 56 54 52 49 47 44 40 37 34 32 33 33 35 35 32 30 30 30 30 28 28 28 28 30 29 30 30 29 29 27 30 37 39 42 40
8 9 8 10 12 11 13 14 12 11 10 10 9 13 17 17 16 16 18 19 26 36 39 43 44 46 51 47 47 50 47 46 46 47 51 52 52 53 52 50 50 50 49 51 54 57 62 65 64 66 67 68 69 64 61 64 66 68 68 66 64 61 57 55 52 50 48 43 40 38 35 33 32 33 34 34 31 29 27 27 28 27 25 24 25 26 25 28 32 32 31 29 30 34 39 43 45
8 8 8 10 12 12 14 12 11 11 11 10 9 10 13 17 18 16 18 20 26 36 39 43 43 46 52 47 46 49 48 49 47 47 49 50 53 53 53 52 50 50 49 52 55 60 67 65 63 70 69 70 78 74 67 70 72 71 68 65 64 62 59 56 54 51 48 45 43 39 36 33 31 32 34 34 32 31 29 28 28 28 26 23 24 25 24 28 33 34 35 33 32 37 42 45 47
9 9 9 11 12 11 12 11 11 11 11 10 10 9 10 15 18 17 19 20 26 37 40 40 43 47 51 47 46 49 49 49 47 47 48 51 56 54 54 53 52 51 50 53 55 63 73 70 65 70 72 72 78 80 75 72 73 72 68 65 65 63 60 58 54 52 50 48 45 42 39 35 34 35 35 36 35 34 33 31 29 30 31 26 23 24 24 28 31 32 36 37 35 38 44 46 49
9 9 9 12 13 11 11 11 13 13 11 10 10 10 9 12 17 17 17 23 29 39 41 37 44 48 47 46 47 49 48 48 46 46 48 53 56 54 54 54 54 52 51 54 54 59 69 71 66 65 72 77 78 78 74 70 71 71 69 67 67 65 62 58 55 54 53 51 48 45 42 38 37 37 37 38 37 36 35 34 33 33 35 34 27 23 24 26 27 29 33 38 38 38 42 47 51
9 11 12 14 14 12 12 11 12 13 12 11 11 10 8 9 14 13 15 29 37 39 38 35 44 47 47 48 50 50 48 48 47 45 47 50 53 53 52 51 53 52 52 54 54 57 61 67 67 64 75 81 78 76 74 71 72 72 71 70 69 66 62 59 58 58 56 53 51 47 44 41 40 39 39 41 40 38 37 37 37 35 37 40 36 28 26 27 27 26 29 36 37 36 38 44 50
11 13 13 13 14 13 12 11 11 13 14 12 12 11 9 9 10 12 18 30 35 36 36 36 41 46 49 50 48 49 48 47 46 45 45 47 50 49 47 48 50 51 51 53 54 56 59 67 67 67 79 83 77 76 76 74 73 73 73 72 68 65 63 63 62 59 56 54 52 48 45 43 42 41 42 43 42 39 39 40 40 38 37 41 44 39 33 30 29 27 26 30 33 34 33 39 46
11 12 11 11 13 14 12 11 11 12 14 14 13 11 10 11 12 16 25 30 31 33 36 38 42 47 51 50 48 48 47 47 45 44 45 45 47 46 45 47 49 49 50 52 54 56 58 64 67 71 79 82 80 78 77 74 74 74 74 71 67 65 66 65 62 59 56 54 51 49 46 44 43 43 44 44 42 41 42 43 42 40 38 38 43 46 43 37 32 29 25 25 28 30 29 33 42
10 10 13 13 12 13 11 11 11 12 15 14 13 12 10 15 18 19 23 29 34 36 37 40 41 43 48 49 49 49 47 46 45 43 44 45 46 47 47 48 49 49 50 52 55 57 56 57 65 73 77 79 82 80 76 73 75 75 73 69 67 67 68 64 61 59 57 53 52 50 48 45 44 44 44 44 43 43 43 43 43 43 42 39 39 43 46 46 40 33 25 22 22 25 24 27 38
10 10 13 13 12 12 11 11 11 13 16 14 13 12 11 17 23 24 23 27 37 38 37 40 39 38 43 44 45 47 45 44 44 42 43 45 46 46 47 48 49 49 50 52 55 57 57 57 61 68 73 76 80 78 74 73 75 74 71 69 68 68 66 63 62 60 56 54 53 50 47 46 46 45 44 44 43 44 45 45 45 47 46 42 41 41 43 45 45 39 31 24 20 21 21 22 31
10 11 13 12 12 12 12 12 11 14 16 14 13 13 12 15 24 31 29 31 38 38 37 40 39 38 41 40 40 44 45 44 44 44 44 44 43 44 45 47 48 48 49 52 57 58 58 60 61 64 68 73 75 75 75 73 73 73 71 69 68 68 66 62 60 57 55 54 52 49 48 48 48 47 45 45 45 47 48 48 50 52 52 49 46 43 41 40 43 43 39 32 25 22 20 19 26
11 14 14 12 14 12 13 14 12 14 16 14 13 13 13 12 19 29 31 34 37 38 40 41 40 39 41 39 39 45 45 45 45 44 45 44 42 43 45 48 50 49 51 55 58 58 57 59 60 60 63 67 69 72 75 74 73 72 69 68 68 67 63 60 56 55 54 52 51 51 51 51 50 49 48 48 49 52 52 52 53 56 57 57 52 48 42 38 39 42 42 39 36 31 24 20 22
12 15 14 14 15 13 13 14 12 14 16 15 14 13 13 12 14 19 30 36 35 40 43 43 42 42 42 40 41 45 44 44 44 43 45 45 44 45 46 49 51 51 52 56 58 57 56 57 57 59 60 63 67 70 72 72 71 69 69 70 68 63 59 56 54 54 55 53 53 53 53 52 52 52 52 53 54 55 56 55 57 59 60 61 59 53 46 40 37 39 41 42 43 42 35 28 26
12 12 13 15 15 13 12 12 12 14 16 16 15 14 12 13 12 15 30 36 35 42 44 43 45 44 43 42 42 44 43 43 43 43 46 47 46 46 48 50 52 54 55 59 60 58 57 56 57 59 61 63 65 68 70 71 71 70 72 73 67 60 58 57 56 56 56 55 54 54 54 54 55 55 55 56 57 57 58 58 59 61 61 63 64 60 54 48 41 40 41 40 42 45 42 39 37
11 11 13 14 13 12 11 12 12 13 15 16 16 15 14 13 13 19 29 31 31 37 36 35 39 42 42 41 42 42 42 43 44 46 47 48 48 48 51 53 55 57 58 61 61 60 59 57 57 59 63 66 67 67 69 72 72 70 71 71 65 61 61 59 58 58 57 56 55 54 55 56 57 57 57 57 59 59 58 59 61 62 62 64 68 67 63 57 51 49 47 43 43 44 43 43 45
11 12 13 12 11 12 11 12 13 12 14 16 17 15 14 13 14 22 26 25 27 27 26 26 30 36 39 41 42 42 43 44 46 48 48 48 48 52 56 56 57 58 59 62 64 63 60 58 58 60 63 68 70 69 69 71 71 69 68 68 64 63 65 64 62 61 59 58 58 58 58 58 58 58 58 57 58 61 60 62 64 65 65 65 68 72 74 68 62 61 58 55 52 48 46 46 51
13 13 13 12 12 12 12 13 13 13 14 16 17 14 14 13 14 21 22 22 22 20 23 26 29 33 37 40 41 40 42 44 46 47 47 48 49 54 60 58 58 59 59 62 65 63 62 61 61 61 63 68 71 68 67 69 69 67 65 63 63 63 65 66 64 63 61 61 60 59 59 57 55 54 54 55 57 60 61 63 65 67 67 68 69 74 82 79 72 68 66 64 61 54 50 50 54
13 14 14 13 12 12 12 13 13 13 13 14 15 14 14 13 13 20 25 25 22 23 27 28 32 37 39 40 39 39 41 43 46 47 48 49 50 53 58 59 60 59 58 61 64 62 62 64 64 64 66 68 67 67 68 70 68 65 63 61 62 62 64 64 63 62 60 60 59 57 55 53 51 50 51 52 55 59 62 64 66 68 70 71 71 74 83 84 77 73 70 68 66 56 48 46 50
13 14 14 13 13 13 12 12 12 12 12 13 13 14 14 14 15 23 32 32 29 30 32 31 35 39 38 39 40 41 44 46 49 52 52 51 51 53 55 58 60 60 58 59 63 62 62 68 70 68 66 65 66 68 69 69 67 65 63 61 60 59 59 58 57 57 57 56 54 52 49 47 46 47 48 50 54 59 63 65 68 71 74 74 74 73 78 80 78 75 72 69 68 58 46 42 47
14 14 14 13 13 13 13 12 13 12 12 11 12 14 13 16 20 26 35 37 35 35 35 34 37 38 38 40 41 43 47 51 53 55 56 55 55 54 56 59 61 61 58 58 63 63 62 67 70 67 64 64 65 67 67 66 66 64 62 59 57 55 52 51 50 50 49 48 47 47 46 45 45 46 47 51 55 61 64 66 70 74 76 76 74 73 72 74 73 72 70 69 70 64 52 46 49
14 14 14 14 14 14 14 13 14 12 12 12 12 13 13 18 21 24 33 38 36 36 37 37 37 39 40 41 43 48 52 54 54 56 57 57 55 55 58 60 61 62 59 59 63 63 64 67 67 66 64 62 61 62 62 62 62 60 58 54 50 47 44 42 41 40 41 43 44 45 46 46 48 51 53 55 58 64 66 67 72 75 77 76 75 73 69 69 69 69 68 68 72 72 64 56 53
14 15 14 15 14 14 14 14 14 13 13 12 12 12 12 16 19 22 31 37 36 35 38 39 39 41 42 44 47 51 53 53 54 55 57 57 56 56 59 61 62 63 61 60 62 64 68 68 65 65 62 58 58 60 58 56 54 51 47 44 41 38 36 35 35 34 36 41 44 46 45 44 47 52 56 58 61 64 65 67 73 76 76 76 76 74 69 67 69 69 67 66 70 74 72 67 62
15 15 15 16 15 14 14 14 14 14 13 12 12 12 12 14 15 22 32 36 37 37 39 40 40 42 43 47 51 52 51 52 54 55 55 57 59 60 60 61 63 64 62 61 62 65 68 65 63 63 59 57 61 60 56 51 47 42 40 38 35 34 32 32 32 33 34 37 43 47 44 43 45 49 53 59 64 64 66 68 72 76 74 72 73 72 70 68 67 67 66 65 68 70 71 70 67
15 15 15 16 16 16 15 15 14 14 14 13 13 13 15 15 13 25 37 37 37 38 38 40 42 44 44 48 52 53 52 53 54 53 54 57 61 63 63 63 64 65 64 60 59 61 63 62 61 60 58 60 62 57 51 46 42 40 38 36 34 33 32 32 32 33 34 34 38 41 41 42 46 50 53 59 63 65 67 67 71 74 70 67 68 69 68 67 65 64 64 65 68 70 70 71 69
16 15 18 18 16 17 16 15 15 14 14 14 13 14 16 16 17 30 39 37 38 38 38 39 42 44 46 50 52 53 54 54 53 51 54 59 62 65 66 66 65 66 65 58 57 58 58 58 59 60 61 62 57 49 45 42 40 39 38 36 34 32 32 31 31 31 33 35 39 44 47 46 48 55 56 57 61 64 65 66 70 72 69 69 71 68 64 60 58 57 58 61 65 68 69 71 71
20 16 22 23 18 19 19 16 16 15 15 15 14 15 17 16 20 33 38 37 37 37 38 39 40 44 48 51 52 54 56 54 51 50 53 58 61 64 67 68 66 65 64 60 59 59 57 59 60 62 63 57 50 47 44 41 38 38 37 35 34 33 32 30 28 28 30 34 39 45 48 46 50 56 55 55 58 60 60 63 68 70 71 74 74 70 63 58 54 51 52 56 59 63 67 71 72
26 20 22 23 20 20 20 17 18 17 17 16 15 17 19 18 22 34 38 37 37 37 38 39 41 45 49 51 52 56 57 53 50 50 51 55 59 61 62 65 64 63 64 62 61 61 61 61 64 64 60 52 49 48 43 39 37 36 35 34 34 32 31 29 26 26 27 31 34 36 39 43 50 56 54 53 54 57 57 57 62 66 69 72 72 69 65 60 55 51 52 56 57 59 65 68 70
26 25 25 24 22 21 21 20 20 19 17 17 17 17 18 18 24 36 37 36 37 37 39 41 44 47 49 53 56 59 56 51 51 50 51 54 57 57 57 60 61 61 63 62 62 64 63 63 63 64 59 51 49 47 41 37 36 33 33 34 34 32 29 27 25 26 28 29 31 33 39 44 48 52 54 53 54 56 56 54 57 61 64 68 69 68 65 59 54 53 55 59 58 58 64 67 65
23 23 24 24 24 22 23 24 23 21 19 18 16 16 15 15 26 37 37 38 39 38 40 43 47 49 51 57 59 60 56 52 51 51 51 53 56 56 54 56 59 59 63 64 62 64 67 64 58 57 55 50 48 46 41 36 34 32 32 33 32 31 29 27 26 26 27 27 29 32 39 42 42 45 49 52 54 55 55 55 55 58 62 64 67 67 63 58 54 53 56 58 57 57 64 66 63
22 22 23 22 23 24 25 25 24 23 20 18 15 14 13 16 29 38 37 39 40 39 42 46 50 51 53 60 62 60 57 53 50 51 51 52 55 57 55 56 56 57 60 62 60 59 62 60 54 53 50 46 47 44 38 33 31 30 31 31 32 31 28 28 28 27 25 25 27 29 32 34 36 40 44 50 54 55 55 56 56 58 61 63 65 66 62 57 53 54 56 57 57 59 62 61 59
21 22 23 23 25 26 27 25 24 23 19 17 16 16 16 21 33 38 37 39 41 42 44 48 51 52 56 64 66 62 57 52 49 50 52 53 54 56 58 59 58 57 58 60 59 57 54 53 52 51 47 46 45 40 33 29 29 31 32 32 32 31 29 28 29 27 23 22 23 27 29 31 34 36 40 46 51 52 53 54 54 56 59 61 64 64 60 56 54 56 57 56 59 65 64 58 57
22 23 23 24 28 29 27 24 23 24 20 18 19 18 21 29 37 39 38 40 44 47 47 49 52 55 60 65 66 61 56 52 49 51 52 51 52 53 57 60 60 61 61 61 61 58 53 51 50 49 46 45 43 38 33 29 30 32 34 34 33 33 31 29 28 25 21 19 20 24 28 31 33 33 35 39 42 45 48 50 53 54 56 59 61 60 58 56 56 57 57 58 61 66 65 59 56
26 26 25 27 30 29 26 25 26 26 22 20 21 23 27 33 37 41 41 43 48 51 52 53 56 60 62 63 63 59 55 53 50 50 50 49 49 50 50 53 56 60 61 63 64 61 55 50 48 48 48 44 41 38 34 30 30 32 34 35 35 35 34 31 29 26 22 20 20 21 26 31 33 32 32 33 34 37 40 43 46 50 53 54 55 55 55 54 53 53 54 58 61 66 66 61 57
30 30 27 27 29 28 26 27 30 31 29 26 26 27 31 33 36 40 42 43 47 51 54 55 57 60 61 60 61 58 55 55 52 50 50 49 49 49 47 48 50 52 55 58 59 57 53 49 47 50 49 43 39 36 34 32 31 32 34 37 38 40 40 37 31 27 25 24 22 20 22 26 31 32 32 31 32 32 33 35 38 41 44 47 48 49 49 49 49 50 51 56 60 64 66 65 62
33 32 28 27 30 29 28 31 34 35 33 31 31 31 31 33 38 41 42 41 42 47 52 54 55 58 59 60 61 60 57 55 52 49 48 49 49 48 48 48 48 48 49 50 50 50 49 48 46 47 47 42 38 37 35 34 33 33 35 37 39 41 43 41 34 31 31 28 25 22 18 18 23 28 30 30 29 28 27 28 29 31 35 37 39 39 40 41 42 46 48 53 59 59 63 67 67
31 32 29 28 30 30 31 34 37 37 34 32 32 32 33 35 37 38 38 39 42 46 51 54 56 58 59 61 63 62 58 54 52 49 47 49 50 50 50 48 46 47 47 47 47 47 47 46 45 45 43 40 39 38 36 36 35 35 34 35 38 42 46 46 38 34 36 32 29 27 23 19 20 22 23 24 24 22 22 22 23 27 29 31 31 30 30 31 33 38 40 45 50 52 57 64 67
28 31 31 31 32 32 34 36 34 35 36 36 35 34 35 38 35 34 35 37 42 46 49 53 56 57 59 61 62 61 57 55 53 50 48 49 49 51 51 47 46 47 48 48 48 47 46 45 44 42 39 37 37 36 35 35 36 36 35 36 38 44 50 50 42 40 40 35 32 33 28 22 24 25 23 24 24 23 22 24 27 29 30 29 29 27 27 27 29 32 34 37 40 45 51 58 62
29 32 32 32 32 33 38 40 36 36 37 38 41 37 36 38 36 38 37 35 38 42 45 51 54 57 58 59 59 59 56 55 55 52 49 48 48 50 51 50 50 50 49 50 49 48 47 45 44 41 35 32 33 33 34 34 36 36 38 37 38 44 53 53 47 45 44 37 33 34 27 21 24 27 26 25 26 26 26 27 29 30 30 29 28 27 26 26 27 28 30 33 35 39 46 52 57
29 32 32 32 33 37 42 42 40 42 38 36 43 41 37 42 44 42 38 34 36 40 44 50 54 56 57 57 57 57 55 54 55 53 49 48 48 49 52 53 53 53 51 51 51 49 48 47 47 44 37 36 36 36 36 36 36 37 39 39 39 43 51 54 53 52 49 42 37 34 27 22 24 26 24 23 25 27 26 26 27 27 29 28 28 27 26 25 25 26 28 29 31 33 37 44 51
29 31 31 32 35 41 45 43 41 43 40 37 44 43 38 44 49 42 35 33 37 41 44 49 52 54 55 57 58 57 56 54 55 54 50 49 48 50 54 55 55 56 55 54 52 49 48 47 48 44 38 36 37 37 38 38 38 39 41 42 43 43 45 48 51 52 50 44 39 32 26 23 24 24 22 20 23 27 26 25 25 26 28 28 27 26 26 25 23 25 26 25 27 28 29 33 41
29 30 30 30 34 40 45 49 45 43 44 43 46 46 39 42 49 44 38 37 38 41 42 45 49 51 53 54 56 57 56 55 56 55 52 50 49 50 54 57 58 57 56 56 54 52 51 50 49 43 36 33 33 34 36 38 39 41 42 44 46 46 46 46 47 47 45 41 37 34 27 24 24 21 17 16 19 23 25 25 24 23 25 27 27 26 25 24 21 23 25 24 25 26 25 26 28
31 31 31 28 32 36 40 46 45 45 51 48 48 49 41 41 46 45 44 44 43 42 41 43 46 48 50 51 53 55 56 56 56 56 53 51 50 51 54 58 60 59 58 58 56 55 54 51 49 42 35 32 31 33 36 37 39 42 46 49 51 53 52 50 50 49 47 43 40 37 29 25 25 20 15 14 16 19 21 21 18 18 21 24 24 22 20 19 18 20 22 21 23 24 23 23 22
32 32 33 32 35 38 39 46 50 51 53 50 50 50 43 43 44 42 46 47 46 47 45 44 44 42 44 48 51 53 56 56 56 56 55 53 53 53 56 60 63 64 62 61 59 58 55 51 47 40 35 33 33 35 38 38 40 43 48 52 57 61 61 59 58 56 55 51 46 41 33 30 29 21 14 13 15 17 17 15 14 14 16 17 16 14 13 12 13 15 15 16 20 21 19 17 15
31 31 33 34 40 44 43 50 53 52 51 50 52 48 43 44 42 40 46 47 49 52 51 50 46 40 39 44 48 51 54 57 57 58 58 58 58 57 59 62 65 67 66 64 62 58 55 50 44 40 38 37 36 37 39 40 44 49 54 61 67 69 68 68 65 61 61 57 49 42 35 34 31 21 14 14 14 15 14 12 11 12 13 12 12 11 11 11 11 11 12 14 15 15 14 12 11
33 33 31 31 39 42 43 47 48 47 50 51 50 45 44 46 42 42 45 46 50 53 52 52 48 42 38 40 44 49 53 56 58 58 60 61 61 62 66 65 64 67 68 66 62 58 56 51 45 44 43 40 38 40 44 47 52 60 64 70 79 78 74 72 65 59 60 59 53 45 37 36 32 21 14 14 14 13 12 11 11 11 12 12 12 12 11 12 11 11 11 12 12 11 11 11 11
34 34 31 31 35 38 40 42 43 45 47 49 49 46 46 47 44 45 47 47 49 51 51 50 47 43 40 40 43 47 51 54 55 55 58 60 59 65 72 68 64 66 67 66 62 58 55 51 49 50 47 43 39 40 45 48 55 64 67 71 79 80 73 66 59 54 54 59 60 51 41 38 31 20 15 14 14 13 13 13 12 11 12 12 11 11 11 11 11 10 10 10 10 10 10 10 9
36 33 32 34 34 37 40 41 44 45 41 44 47 43 45 46 43 44 47 47 49 51 52 51 46 42 41 43 46 48 51 53 53 54 57 59 60 66 70 65 63 66 68 66 62 58 54 51 51 50 46 44 41 40 48 59 66 71 72 75 78 75 69 63 57 50 51 62 64 50 42 39 29 21 18 15 15 15 14 13 13 13 12 12 12 12 11 11 11 11 11 11 11 10 11 10 10
37 35 34 35 33 35 40 44 49 48 43 43 42 40 42 45 45 43 43 46 49 52 53 50 47 46 46 48 49 51 54 54 53 56 61 61 60 63 65 63 65 66 66 64 59 53 50 47 47 46 44 46 46 50 63 74 78 77 76 76 74 71 69 65 59 51 51 64 62 49 46 42 29 22 20 18 17 17 16 16 16 16 16 16 16 16 16 16 15 16 16 16 17 17 17 17 17
35 34 33 35 37 36 37 41 46 46 46 45 41 41 43 42 44 44 40 42 45 48 51 50 51 53 52 52 53 53 54 57 57 60 64 65 63 64 65 64 64 62 59 57 50 44 41 40 42 43 44 47 48 54 63 69 72 73 71 71 70 70 67 64 62 55 56 64 59 50 50 44 32 27 24 22 22 21 21 22 22 23 24 24 25 25 25 25 25 26 27 27 28 27 27 27 27
34 33 34 38 41 42 39 41 42 44 51 52 44 45 46 44 46 44 40 43 45 46 50 51 53 57 58 59 59 56 56 62 66 66 67 68 67 67 67 65 63 59 55 51 45 42 41 40 42 42 44 45 46 50 54 57 61 62 60 61 67 72 70 68 67 61 63 68 60 53 52 47 40 35 31 29 28 28 29 29 30 31 32 33 34 34 34 35 35 36 36 36 36 36 35 35 35
36 36 38 39 40 40 40 42 43 45 54 59 51 48 49 48 49 46 43 46 47 48 51 53 56 61 63 64 63 60 60 65 68 68 68 68 67 67 65 63 61 57 52 48 45 45 46 44 43 43 43 45 46 47 46 49 54 55 53 53 58 65 69 73 70 62 62 62 54 51 52 49 47 43 40 38 37 37 36 35 35 36 36 38 40 41 42 43 44 44 44 42 41 39 39 38 38
39 39 41 42 43 43 43 46 47 47 51 55 53 52 51 48 49 50 49 50 50 51 53 56 60 64 67 68 66 64 63 63 64 66 67 67 66 64 61 60 58 54 51 49 49 50 49 48 46 45 46 46 48 49 47 47 51 51 50 50 54 60 67 71 68 60 58 52 43 44 48 47 46 45 43 42 43 43 42 40 40 39 40 40 41 43 44 46 47 48 47 46 44 42 41 41 40